Location: Stanford
(52.2833°N, 2.4333°W)
Time: 01:54:43
(UTC+00:00)

ISS - Pass Details

Date: 22 January 2021
Orbit: 417 x 422 km, 51.6° (Epoch: 25 February)

Event Time Altitude Azimuth Distance (km) Brightness Sun altitude
Rises 17:36:02 0° 206° (SSW) 2,365 0.8 -8.7°
Reaches altitude 10° 17:38:37 10° 185° (S) 1,505 -0.6 -9.0°
Maximum altitude 17:40:53 17° 143° (SE) 1,153 -1.7 -9.4°
Enters shadow 17:43:05 10° 102° (ESE) 1,488 -1.5 -9.7°
